Hourly Weather Roundup
Issued by NWS Central Illinois

Home | Current Version | Previous Version | Text Only | Print | Product List | Glossary On
Versions: 1 2 3 4 5 6 7 8 9 10 11 12 13 14 15 16 17 18 19 20 21 22 23 24 25 26 27 28 29 30 31 32 33 34 35 36 37 38 39 40 41 42 43 44 45 46 47 48 49 50
000
NZUS43 KILX 261710
HWRILX

Area Weather Roundup
National Weather Service Lincoln IL
1200 PM CDT WED JUL 26 2017

NOTE:  "FAIR" indicates few or no clouds below 12,000 feet, with
       no sigificant weather and/or obstructions to visibility.


CITY           SKY/WX    TMP DP  RH WIND       PRES   REMARKS
Bloomington    PTSUNNY   82  73  74 S6        30.08S HX  87
Champaign      CLOUDY    84  74  71 SE8       30.07F HX  91
Danville       MOSUNNY   82  71  69 SE8       30.06F HX  87
Decatur        CLOUDY    84  74  71 SE7       30.06F HX  91
Effingham      CLOUDY    87  76  71 E6        30.06F HX  97
Flora          SUNNY     89  77  67 SW5       30.05F HX 100
Galesburg      CLOUDY    81  75  82 S5        30.05S HX  87
Jacksonville   MOSUNNY   86  75  69 CALM      30.04F HX  95
Lacon          PTSUNNY   81  74  78 S3        30.04S HX  86
Lawrenceville  MOSUNNY   85  75  72 SE8       30.07F HX  93
Litchfield     MOSUNNY   85  76  73 CALM      30.05F HX  95
$$


CITY           SKY/WX    TMP DP  RH WIND       PRES   REMARKS
Lincoln        MOSUNNY   84  77  79 S5        30.05F HX  94
Macomb         CLOUDY    83  76  78 CALM      30.06S HX  91
Mattoon        PTSUNNY   83  75  77 SE8       30.06F HX  90
Mt Carmel AP   MOSUNNY   84  74  71 SE5       30.07F HX  92
Olney-Noble AP SUNNY     85  79  82 SE7       30.06F HX  99
Paris AP       MOSUNNY   82  74  75 SE5       30.09F HX  88
Peoria         CLOUDY    82  75  79 S8        30.04F HX  89
Pontiac        CLOUDY    81  75  82 S5        30.07F HX  86
Rantoul        CLOUDY    83  73  70 SE7       30.07F HX  89
Robinson       MOSUNNY   83  74  73 SE3       30.09S HX  90
Springfield    CLOUDY    87  77  72 CALM      30.04F HX  99
Taylorville    CLOUDY    85  76  75 CALM      30.05F HX  94
$$

...REGIONAL REPORTS...


CITY           SKY/WX    TMP DP  RH WIND       PRES   REMARKS
Chicago O`Hare PTSUNNY   82  68  62 S9        30.05F HX  85
Kankakee       MOSUNNY   80  70  70 S6        30.08F HX  83
Moline         CLOUDY    82  74  76 S5        30.02F HX  88
Mount Sterling CLOUDY    86  75  69 W3        30.04F HX  94
Mount Vernon   MOSUNNY   91  78  65 S6        30.05F HX 106
Pittsfield     CLOUDY    87  76  69 SW5       30.06S HX  97
Quincy         CLOUDY    88  74  63 W9        30.04F HX  96
Rockford       CLOUDY    83  72  69 SW6       30.06S HX  88
$$


CITY           SKY/WX    TMP DP  RH WIND       PRES   REMARKS
Burlington     CLOUDY    82  76  81 S8        30.03S HX  89
Cedar Rapids   NOT AVBL
Des Moines     CLOUDY    77  72  84 SE5       30.00R
Kirksville     CLOUDY    84  76  76 SW7       30.04F HX  93
Ottumwa        CLOUDY    84  73  69 W8        30.01S HX  90
St Louis       CLOUDY    96  74  48 W10       30.05S HX 107
$$


CITY           SKY/WX    TMP DP  RH WIND       PRES   REMARKS
Terre Haute    SUNNY     83  71  67 SE6       30.09F HX  87
Evansville     MOSUNNY   79  75  87 E8        30.07F HX  83
Indianapolis   MOSUNNY   81  66  60 SE3       30.11F HX  83
Lafayette      MOSUNNY   79  69  71 S5        30.08F HX  81
Madison        CLOUDY    77  70  79 S5        30.04F
Milwaukee      CLOUDY    81  69  67 SW12      30.04S HX  84
$$





USA.gov is the U.S. government's official web portal to all federal, state and local government web resources and services.